Bookmark and Share
Track history (hours):
 

Ryouei Maru

Last reported at 2014-Apr-16 18:33 UTC. Time now 2014-Apr-16 19:26 UTC.
Position N 35°42' E 140°56'.

Length 95 m; draft 5 m.

Type: Cargo ship. MMSI: 431501749.

NotesDate/timePositionNaut miles runAvg speedWind from/ knotsBaromVisibWave heightAir tempDewpointWater temp
2014-Apr-16 18:33N 35°42' E 140°56'1212.2
2014-Apr-16 17:33N 35°32' E 140°50'1413.7
2014-Apr-16 16:33N 35°20' E 140°40'1514.6
2014-Apr-16 15:33N 35°09' E 140°29'1414.0
2014-Apr-16 14:33N 34°60' E 140°16'1413.7
2014-Apr-16 13:33N 34°53' E 140°02'1413.7
2014-Apr-16 12:33N 34°46' E 139°47'24211.4
2014-Apr-15 15:15N 34°01' E 134°59'1013.7
2014-Apr-15 14:32N 34°10' E 134°59'12 6.3
2014-Apr-15 12:34N 34°23' E 135°01'1312.9
2014-Apr-15 11:34N 34°31' E 135°12'1211.9
2014-Apr-15 10:32N 34°37' E 135°25'1 0.2
2014-Apr-15 07:32N 34°37' E 135°26'0 0.0
2014-Apr-15 06:32N 34°37' E 135°26'0 0.0
2014-Apr-15 05:32N 34°37' E 135°26'0 0.0
2014-Apr-15 00:32N 34°37' E 135°26'0 0.0
2014-Apr-14 22:32N 34°37' E 135°26'0 0.0
2014-Apr-14 21:32N 34°37' E 135°26'6 6.6
2014-Apr-14 20:34N 34°35' E 135°18'10 4.9
2014-Apr-14 18:33N 34°28' E 135°10'1212.3
2014-Apr-14 17:33N 34°18' E 135°00'23610.7
2014-Apr-13 19:32N 34°46' E 139°45'1412.9
2014-Apr-13 18:27N 34°53' E 140°00'1213.4
2014-Apr-13 17:33N 34°58' E 140°13'1512.8
2014-Apr-13 16:21N 35°07' E 140°28'  
2014-Apr-10 17:33N 35°27' E 140°44'1611.7
2014-Apr-10 16:12N 35°14' E 140°33'2111.6
2014-Apr-10 14:23N 34°59' E 140°15'1112.5
2014-Apr-10 13:31N 34°54' E 140°03'25712.2
2014-Apr-09 16:31N 33°58' E 134°60'1313.1
2014-Apr-09 15:33N 34°10' E 134°58'1413.8
2014-Apr-09 14:33N 34°24' E 135°01'1313.2
2014-Apr-09 13:33N 34°32' E 135°13'1111.4
2014-Apr-09 12:33N 34°37' E 135°26'0 0.3
2014-Apr-09 11:33N 34°37' E 135°26'0 0.0
2014-Apr-09 10:33N 34°37' E 135°26'0 0.0
2014-Apr-09 09:33N 34°37' E 135°26'0 0.0
2014-Apr-09 07:33N 34°37' E 135°26'0 0.0
2014-Apr-09 06:33N 34°37' E 135°26'0 0.0
2014-Apr-09 05:27N 34°37' E 135°26'0 0.0
2014-Apr-09 04:27N 34°37' E 135°26'0 0.0
2014-Apr-09 02:33N 34°37' E 135°26'0 0.0
2014-Apr-09 01:27N 34°37' E 135°26'1 0.6
2014-Apr-09 00:33N 34°37' E 135°25'8 8.2
2014-Apr-08 23:33N 34°33' E 135°17'1211.6
2014-Apr-08 22:34N 34°24' E 135°08'1211.7
2014-Apr-08 21:33N 34°15' E 134°59'1313.0
2014-Apr-08 20:33N 34°02' E 135°01'23410.1
2014-Apr-07 21:25N 34°44' E 139°39'1211.7
2014-Apr-07 20:25N 34°49' E 139°52'1210.1
2014-Apr-07 19:13N 34°55' E 140°05'26 9.0
2014-Apr-07 16:20N 35°11' E 140°30'  

Dump ship's entire track history

sailing weather and tide predictions

Ryouei Maru — JL6703 — position and weather